"Pseudo-MPEC" for P22bxtA

Created 2025 Jul 7 22:35:12 UT using Find_Orb

Click here for an explanation of pseudo-MPECs

 
 Astrometry: 
     P22bxtA* C2025 07 04.36982317 17 15.692+06 33 07.10   ~74BK 22.60wXNEOCPF52
     P22bxtA  C2025 07 04.37838317 17 15.891+06 33 27.95   ~74BK 22.21wXNEOCPF52
     P22bxtA  C2025 07 04.38687817 17 16.049+06 33 49.58   ~74BK 22.19wXNEOCPF52
     P22bxtA  C2025 07 04.39543617 17 16.232+06 34 10.81   ~74BK 22.09wXNEOCPF52
     P22bxtA KC2025 07 05.13023117 17 38.86 +07 04 11.8    ~7545 22.5 GVNEOCPH21
     P22bxtA KC2025 07 05.13600717 17 39.01 +07 04 26.4    ~7545 22.2 GVNEOCPH21
     P22bxtA KC2025 07 05.14033917 17 39.12 +07 04 36.5    ~7545 22.6 GVNEOCPH21
     P22bxtA KC2025 07 05.14467117 17 39.19 +07 04 47.2    ~7545 22.3 GVNEOCPH21
     P22bxtA 2C2025 07 05.32981017 17 44.961+07 12 21.05   ~75Lo 22.6 GWNEOCPT12
     P22bxtA 2C2025 07 05.33532417 17 45.083+07 12 34.21   ~75Lo 22.1 GWNEOCPT12
     P22bxtA KC2025 07 06.20671817 18 12.675+07 46 56.51   ~765o 22.0 GWNEOCPH01
     P22bxtA KC2025 07 06.21272117 18 12.823+07 47 10.49   ~765o 22.6 GWNEOCPH01
     P22bxtA KC2025 07 06.22018517 18 13.016+07 47 27.80   ~765o 21.9 GWNEOCPH01
     P22bxtA KC2025 07 06.22719517 18 13.185+07 47 44.19   ~765o 21.4 GWNEOCPH01

Station data:
(F52) Pan-STARRS 2, Haleakala  (N20.707382 W156.255910)  US/Hawaii.
   Observers J. Bulger, T. Dukes, T. Lowe, A. Schultz, M. Willman. Measurers
   K. Chambers, S. Chastel, T. de Boer, L. Denneau, J. Fairlamb, H.
   Flewelling, M. Huber, C.-C. Lin, E. Magnier, Y. Ramanjooloo, R. Wainscoat,
   R. Weryk. 1.8-m Ritchey-Chrétien + CCD.
(H01) Magdalena Ridge Observatory, Socorro  (N33.984833 W107.189333)  US/New
   Mexico.  Observers W. H. Ryan, E. V. Ryan. Measurer W. H. Ryan. 2.4-m
   f/8.9 reflector + CCD.
(H21) Astronomical Research Observatory, Westfield  (N39.483054 W87.968270)
   US/Illinois.  Observer R. Holmes. Measurers S. Foglia, L. Buzzi, T.
   Linder, R. Holmes. 0.40-m f/5.32 astrograph + CCD.
(T12) Mauna Kea-UH/Tholen NEO Follow-Up (2.24-m)  (N19.822991 W155.469434)
   US/Hawaii.  Observer Y. Ramanjooloo. 2.24-m f/10.1 University of Hawaii
   reflector.

Orbital elements:  P22bxtA
   Perihelion 2025 Jul 3.19125 +/- 1.05 TT =  4:35:24 (JD 2460859.69125)
Epoch 2025 Jul  6.0 TT = JDT 2460862.5   Earth MOID: 0.3783   Ju: 0.7533
M   0.54741270 +/- 0.16             Ma: 0.0758                   AutoNEOCP
n   0.19489563 +/- 0.0165           Peri.   22.25602 +/- 0.9
a   2.94623895 +/- 0.166            Node   254.33070 +/- 0.09
e   0.5333987 +/- 0.0227            Incl.   22.63112 +/- 0.6
P   5.05710                H 22.34  G  0.15   U 10.0
q 1.37471886 +/- 0.0107    Q 4.51775904 +/- 0.322         (J2000 ecliptic)
From 14 observations 2025 July 4-6 (44.6 hr); mean residual 0".25
Residuals in arcseconds: 
250704 F52  .02-  .15+    250705 H21  .47+  .64+    250706 H01  .28+  .08+    
250704 F52  .25+  .35-    250705 H21  .56+  .22+    250706 H01  .22+  .04+    
250704 F52  .08-  .12+    250705 H21  .05+  .39+    250706 H01  .28+  .08-    
250704 F52  .06-  .03+    250705 T12  .01-  .06+    250706 H01  .16+  .05-    
250705 H21  .32+  .09+    250705 T12  .08-  .09-    

Ephemerides (geocentric):
Date (UTC) HH   RA             Dec           delta  r     elong  mag " sig PA
---- --------  ------------   ------------  ------ ------ -----  --- --------
2025 07 07 23  17 19 11.970   +08 53 01.47  .43682 1.3757 138.8 22.5 1.89  75
2025 07 08 00  17 19 13.448   +08 54 32.38  .43701 1.3757 138.8 22.5 1.95  75
2025 07 08 01  17 19 14.929   +08 56 03.13  .43720 1.3757 138.7 22.5 2.01  75
2025 07 08 02  17 19 16.413   +08 57 33.74  .43738 1.3757 138.7 22.5 2.07  75
2025 07 08 03  17 19 17.900   +08 59 04.20  .43757 1.3757 138.6 22.5 2.14  76
2025 07 08 04  17 19 19.390   +09 00 34.51  .43776 1.3758 138.6 22.5 2.20  76
2025 07 08 05  17 19 20.883   +09 02 04.68  .43794 1.3758 138.6 22.5 2.27  76
2025 07 08 06  17 19 22.379   +09 03 34.69  .43813 1.3758 138.5 22.5 2.33  76
2025 07 08 07  17 19 23.878   +09 05 04.56  .43832 1.3758 138.5 22.5 2.40  77
2025 07 08 08  17 19 25.380   +09 06 34.29  .43851 1.3758 138.4 22.5 2.47  77
2025 07 08 09  17 19 26.884   +09 08 03.86  .43870 1.3758 138.4 22.5 2.54  77
2025 07 08 10  17 19 28.392   +09 09 33.29  .43889 1.3759 138.4 22.5 2.61  77
2025 07 08 11  17 19 29.903   +09 11 02.57  .43907 1.3759 138.3 22.5 2.68  77
2025 07 08 12  17 19 31.417   +09 12 31.70  .43926 1.3759 138.3 22.5 2.75  78
2025 07 08 13  17 19 32.933   +09 14 00.69  .43945 1.3759 138.2 22.5 2.82  78
2025 07 08 14  17 19 34.453   +09 15 29.53  .43964 1.3759 138.2 22.5 2.90  78
2025 07 08 15  17 19 35.975   +09 16 58.22  .43983 1.3760 138.2 22.5 2.97  78
2025 07 08 16  17 19 37.501   +09 18 26.77  .44002 1.3760 138.1 22.5 3.05  78
2025 07 08 17  17 19 39.029   +09 19 55.16  .44021 1.3760 138.1 22.5 3.12  79
2025 07 08 18  17 19 40.561   +09 21 23.42  .44040 1.3760 138.1 22.5 3.20  79
2025 07 08 19  17 19 42.095   +09 22 51.52  .44059 1.3760 138.0 22.5 3.28  79
2025 07 08 20  17 19 43.632   +09 24 19.48  .44078 1.3760 138.0 22.5 3.36  79
2025 07 08 21  17 19 45.172   +09 25 47.29  .44097 1.3761 137.9 22.5 3.44  79
2025 07 08 22  17 19 46.716   +09 27 14.96  .44117 1.3761 137.9 22.5 3.52  79
2025 07 08 23  17 19 48.262   +09 28 42.48  .44136 1.3761 137.9 22.5 3.60  79
2025 07 09 00  17 19 49.811   +09 30 09.85  .44155 1.3761 137.8 22.5 3.68  80
2025 07 09 01  17 19 51.363   +09 31 37.08  .44174 1.3761 137.8 22.5 3.77  80
2025 07 09 02  17 19 52.918   +09 33 04.16  .44193 1.3762 137.7 22.6 3.85  80
2025 07 09 03  17 19 54.476   +09 34 31.09  .44213 1.3762 137.7 22.6 3.94  80
2025 07 09 04  17 19 56.037   +09 35 57.88  .44232 1.3762 137.7 22.6 4.02  80
2025 07 09 05  17 19 57.601   +09 37 24.52  .44251 1.3762 137.6 22.6 4.11  80
2025 07 09 06  17 19 59.167   +09 38 51.02  .44270 1.3762 137.6 22.6 4.20  80
2025 07 09 07  17 20 00.737   +09 40 17.37  .44290 1.3763 137.6 22.6 4.29  81
2025 07 09 08  17 20 02.310   +09 41 43.58  .44309 1.3763 137.5 22.6 4.38  81
2025 07 09 09  17 20 03.886   +09 43 09.64  .44328 1.3763 137.5 22.6 4.47  81
2025 07 09 10  17 20 05.464   +09 44 35.55  .44348 1.3763 137.4 22.6 4.56  81
2025 07 09 11  17 20 07.046   +09 46 01.32  .44367 1.3764 137.4 22.6 4.65  81
2025 07 09 12  17 20 08.630   +09 47 26.94  .44387 1.3764 137.4 22.6 4.75  81
2025 07 09 13  17 20 10.218   +09 48 52.42  .44406 1.3764 137.3 22.6 4.84  81
2025 07 09 14  17 20 11.808   +09 50 17.75  .44426 1.3764 137.3 22.6 4.94  81
2025 07 09 15  17 20 13.402   +09 51 42.94  .44445 1.3764 137.3 22.6 5.03  82
2025 07 09 16  17 20 14.998   +09 53 07.98  .44465 1.3765 137.2 22.6 5.13  82
2025 07 09 17  17 20 16.598   +09 54 32.88  .44484 1.3765 137.2 22.6 5.23  82
2025 07 09 18  17 20 18.200   +09 55 57.63  .44504 1.3765 137.1 22.6 5.33  82
2025 07 09 19  17 20 19.805   +09 57 22.24  .44523 1.3765 137.1 22.6 5.43  82
2025 07 09 20  17 20 21.413   +09 58 46.70  .44543 1.3766 137.1 22.6 5.53  82
2025 07 09 21  17 20 23.024   +10 00 11.02  .44562 1.3766 137.0 22.6 5.63  82
2025 07 09 22  17 20 24.638   +10 01 35.20  .44582 1.3766 137.0 22.6 5.73  82